Regional Weather Roundup
Issued by NWS

Home | Current Version | Previous Version | Graphics & Text | Print | Product List | Glossary On
Versions: 1 2 3 4 5 6 7 8 9 10 11 12 13 14 15 16 17 18 19 20 21 22 23 24 25 26 27 28 29 30 31 32 33 34 35 36 37 38 39 40 41 42 43 44 45 46 47 48 49 50
000
ASUS43 KLSX 142007
RWRMO

WEATHER SUMMARY FOR MISSOURI
NATIONAL WEATHER SERVICE SPRINGFIELD MO
200 PM CST THU DEC 14 2017

NOTE: "FAIR" INDICATES FEW OR NO CLOUDS BELOW 12,000 FEET WITH NO
       SIGNIFICANT WEATHER AND/OR OBSTRUCTIONS TO VISIBILITY.
       CURRENT SKY AND/OR WEATHER CONDITIONS ARE NOT AVAILABLE FOR
       CHILLICOTHE AND FARMINGTON.

MOZ001>031-035>038-043-044-053-054-142100-
...NORTHERN AND WESTERN MISSOURI...

CITY           SKY/WX    TMP DP  RH WIND       PRES   REMARKS
KANSAS CTY INT CLOUDY    40  23  50 N5        30.07F
KANSAS C DTWN  CLOUDY    41  24  51 N7        30.07F
LEE`S SUMMIT   CLOUDY    38  25  59 NW9       30.08S
ST JOSEPH      CLOUDY    41  26  55 NW8       30.07F
CHILLICOTHE      N/A     36  22  56 W5        30.09S
KIRKSVILLE     CLOUDY    30  24  78 NW7       30.06F WCI  23

$$
MOZ066>068-077>081-088>096-101>105-142100-
...SOUTHWEST MISSOURI...

CITY           SKY/WX    TMP DP  RH WIND       PRES   REMARKS
SPRINGFIELD    CLOUDY    39  23  52 NW9       30.07R
JOPLIN         CLOUDY    40  28  62 NW7       30.10F
BRANSON        CLOUDY    39  21  48 N13       30.07S

$$
MOZ032>034-039>042-045>050-055>058-069>072-142100-
...CENTRAL MISSOURI...

CITY           SKY/WX    TMP DP  RH WIND       PRES   REMARKS
COLUMBIA       CLOUDY    32  21  64 N7        30.07R WCI  26
JEFFERSON CITY CLOUDY    34  22  61 N3        30.09R
ROLLA          CLOUDY    34  22  61 NW8       30.05R WCI  27
SEDALIA        CLOUDY    36  24  62 NW9       30.10R WCI  29
WHITEMAN AFB   CLOUDY    36  22  57 NW5       30.04F
WARRENSBURG    CLOUDY    37  23  56 CALM      30.08F
OSAGE BEACH    CLOUDY    36  22  56 NW8       30.09R WCI  30

$$
MOZ051-052-059>065-142100-
...EAST CENTRAL MISSOURI...

CITY           SKY/WX    TMP DP  RH WIND       PRES   REMARKS
ST LOUIS INTL  CLOUDY    32  19  58 N6        30.07F WCI  26
SPIRIT OF STL  CLOUDY    32  20  61 N6        30.08S WCI  26
ST CHARLES     CLOUDY    31  17  56 CALM      30.08F

$$
MOZ072>076-082>087-097>100-106>115-142100-
...SOUTH CENTRAL AND SOUTHEAST MISSOURI...

CITY           SKY/WX    TMP DP  RH WIND       PRES   REMARKS
CAPE GIRARDEAU CLOUDY    35  21  56 N8        30.07S WCI  29
FARMINGTON     CLOUDY    32  23  69 N5        30.06S WCI  27
POPLAR BLUFF   CLOUDY    40  26  57 NE8       30.05S
WEST PLAINS    CLOUDY    40  21  46 NW9       30.05R

$$


USA.gov is the U.S. government's official web portal to all federal, state and local government web resources and services.